Flag for Poland Weather past 2 weeks in Jastrzębie Zdrój, Poland

Now
44 °F

Fog.


Feels Like: 44 °F
Forecast: 38 / 46 °F
Wind: 1 mph from West

Location: Ostrava / Mosnov

Current Time: Feb 27, 2015 at 4:37:40 PM

Latest Report: Feb 27, 2015 at 4:00 PM


Visibility: 4 mi

Pressure: 29.95 "Hg

Humidity: 81%

Dew point: 38 °F

Location of Jastrzębie ZdrójLocation

Historic Weather in Jastrzębie Zdrój — Graph

°F

Jastrzębie Zdrój temperature yesterday

Maximum temperature yesterday: 39 °F (at 11:00 PM)
Minimum temperature yesterday: 37 °F (at 8:00 AM)
Average temperature yesterday: 38 °F

Past Weeks' High & Low Weather Summary

 TemperatureHumidityPressure
High49 °F (Feb 15, 2:00 PM)98% (Feb 27, 12:00 AM)30.78 "Hg (Feb 27, 12:00 AM)
Low20 °F (Feb 17, 6:00 AM)42% (Feb 15, 2:00 PM)29.57 "Hg (Feb 23, 5:00 PM)
Average36 °F78%30.13 "Hg
* Reported Feb 12 3:00 PM — Feb 27 3:00 PM, Jastrzębie Zdrój, Weather by CustomWeather, © 2015

Note: Actual official high and low records may vary slightly from our data, if they occured in-between our weather recording intervals... More about our weather records

Advertising

Jastrzębie Zdrój weather history for previous 24 hours

 ConditionsComfort  
Time TempWeatherWind HumidityBarometerVisibility
3:00 PM
Fri, Feb 27
43 °FFog.1 mph81%29.95 "Hg4 mi
2:00 PM42 °FFog.N/A82%29.95 "Hg3 mi
1:00 PM43 °FFog.N/A82%29.96 "Hg2 mi
12:00 PM42 °FFog.N/A82%29.96 "Hg2 mi
11:00 AM40 °FFog.N/A90%29.98 "Hg2 mi
10:00 AM38 °FFog.N/A94%29.98 "Hg1 mi
9:00 AM38 °FFog.1 mph97%29.98 "Hg1 mi
8:00 AM37 °FFog.N/A97%29.98 "Hg1 mi
7:00 AM37 °FFog.1 mph97%29.98 "Hg1 mi
6:00 AM37 °FFog.1 mph97%29.98 "Hg2 mi
5:00 AM37 °FFog.1 mph97%29.98 "Hg2 mi
2:00 AM38 °FFog.1 mph98%30.02 "Hg2 mi
1:00 AM39 °FFog.1 mph98%30.05 "Hg1 mi
12:00 AM39 °FFog.2 mph98%30.05 "Hg1 mi
11:00 PM
Thu, Feb 26
39 °FFog.3 mph97%30.07 "Hg1 mi
10:00 PM39 °FFog.2 mph97%30.09 "Hg1 mi
9:00 PM39 °FFog.2 mph97%30.10 "Hg1 mi
8:00 PM38 °FFog.3 mph97%30.11 "Hg2 mi
7:00 PM38 °FFog.3 mph96%30.12 "Hg2 mi
6:00 PM39 °FFog.3 mph94%30.13 "Hg2 mi
5:00 PM39 °FLow clouds.5 mph94%30.13 "Hg2 mi
4:00 PM39 °FLight rain. Low clouds.5 mph93%30.14 "Hg2 mi
Weather by CustomWeather, © 2015

See weather overviewHow to use our weather pages